SWA3555 KSAN-KLAX

Flight info

Callsign SWA3555
Flight time N/A
Altitude 10000
Route CWARD2 SLI
Aircraft B38M/M-SDE1FGHILORVWXY/HB1

Departure

Time 2026-04-25 23:46
Airport San Diego International Airport (KSAN)

Arrival

Time N/A
Airport Los Angeles International Airport (KLAX)
Time Latitude Longitude Altitude Speed Heading
2026-04-25 23:21 32.73335 -117.19906 27 ft 0 kts 116°
2026-04-25 23:32 32.73341 -117.19920 27 ft 2 kts 116°
2026-04-25 23:33 32.73348 -117.19937 27 ft 2 kts 116°
2026-04-25 23:33 32.73356 -117.19955 27 ft 2 kts 108°
2026-04-25 23:33 32.73354 -117.19973 27 ft 2 kts 41°
2026-04-25 23:33 32.73339 -117.19983 27 ft 2 kts 18°
2026-04-25 23:34 32.73331 -117.19986 27 ft 1 kts 11°
2026-04-25 23:39 32.73351 -117.19982 27 ft 5 kts 10°
2026-04-25 23:39 32.73404 -117.19970 28 ft 10 kts 12°
2026-04-25 23:40 32.73474 -117.19933 28 ft 12 kts 54°
2026-04-25 23:40 32.73464 -117.19840 28 ft 13 kts 106°
2026-04-25 23:40 32.73435 -117.19717 27 ft 18 kts 106°
2026-04-25 23:40 32.73395 -117.19552 28 ft 22 kts 106°
2026-04-25 23:41 32.73354 -117.19386 27 ft 21 kts 106°
2026-04-25 23:41 32.73315 -117.19223 28 ft 20 kts 106°
2026-04-25 23:41 32.73279 -117.19074 27 ft 17 kts 106°
2026-04-25 23:41 32.73246 -117.18940 27 ft 17 kts 106°
2026-04-25 23:42 32.73214 -117.18809 29 ft 16 kts 106°
2026-04-25 23:42 32.73183 -117.18678 29 ft 16 kts 106°
2026-04-25 23:42 32.73156 -117.18567 25 ft 13 kts 106°
2026-04-25 23:42 32.73133 -117.18476 25 ft 10 kts 106°
2026-04-25 23:43 32.73116 -117.18402 26 ft 11 kts 106°
2026-04-25 23:43 32.73087 -117.18285 31 ft 19 kts 106°
2026-04-25 23:43 32.73043 -117.18104 26 ft 24 kts 105°
2026-04-25 23:43 32.72997 -117.17913 26 ft 25 kts 106°
2026-04-25 23:44 32.72948 -117.17720 23 ft 20 kts 96°
2026-04-25 23:44 32.72998 -117.17601 30 ft 12 kts 10°
2026-04-25 23:44 32.73040 -117.17663 25 ft 9 kts 287°
2026-04-25 23:44 32.73044 -117.17681 25 ft 0 kts 286°
2026-04-25 23:45 32.73046 -117.17691 26 ft 10 kts 286°
2026-04-25 23:45 32.73139 -117.18074 24 ft 88 kts 286°
2026-04-25 23:45 32.73375 -117.19048 32 ft 150 kts 284°
2026-04-25 23:46 32.73699 -117.20256 720 ft 152 kts 287°
2026-04-25 23:46 32.74219 -117.21316 1706 ft 148 kts 299°
2026-04-25 23:46 32.74837 -117.22440 1875 ft 176 kts 299°
2026-04-25 23:46 32.75513 -117.23679 2332 ft 189 kts 299°
2026-04-25 23:47 32.76239 -117.25017 3143 ft 197 kts 299°
2026-04-25 23:47 32.77011 -117.26442 3892 ft 213 kts 301°
2026-04-25 23:47 32.77839 -117.27972 4639 ft 228 kts 301°
2026-04-25 23:47 32.78728 -117.29615 5419 ft 244 kts 300°
2026-04-25 23:48 32.79680 -117.31373 6277 ft 259 kts 301°
2026-04-25 23:48 32.80795 -117.33100 7255 ft 267 kts 304°